FW1946 Weather Reports


time (UTC)temp
F
wind
direction
speed
knots
gust
knots
rain 1hr
in
rain 24hr
in
rain mn
in
humidity
%
barometer
mb
20260505170107 64 272 1.7 13.9 0.00 0.00 0.00 65 1014.8
20260505164534 64 276 1.7 10.4 0.00 0.00 0.00 66 1014.7
20260505163031 63 288 1.7 8.7 0.00 0.00 0.00 68 1014.6
20260505161535 62 262 1.7 7.8 0.00 0.00 0.00 69 1014.8
20260505151536 60 246 0.9 7.0 0.00 0.00 0.00 74 1014.7
20260505130108 55 232 0.9 5.2 0.00 0.00 0.00 82 1013.8
20260505124535 55 258 0.9 6.1 0.00 0.00 0.00 81 1013.6
20260505123106 56 264 0.9 9.6 0.00 0.00 0.00 81 1013.6
20260505121536 56 264 0.9 5.2 0.00 0.00 0.00 81 1013.4
20260505114531 56 267 0.9 4.3 0.00 0.00 0.00 80 1013.3
20260505113037 57 276 0.9 7.8 0.00 0.00 0.00 79 1013.3
20260505111531 57 248 0.9 7.8 0.00 0.00 0.00 79 1013.2
20260505101536 58 274 0.9 5.2 0.00 0.00 0.00 77 1012.7
20260505100046 59 256 0.9 7.8 0.00 0.00 0.00 76 1012.6
20260505094642 59 267 1.7 8.7 0.00 0.00 0.00 76 1012.5
20260505093037 59 263 1.7 9.6 0.00 0.00 0.00 75 1012.4
20260505091535 60 259 0.9 7.8 0.00 0.00 0.00 75 1012.3
20260505090036 60 271 1.7 7.0 0.00 0.00 0.00 74 1012.2
20260505084532 61 268 0.9 7.0 0.00 0.00 0.00 74 1012.1
20260505083110 62 255 1.7 9.6 0.00 0.00 0.00 74 1012.1
20260505081536 62 277 0.9 9.6 0.00 0.00 0.00 74 1011.9
20260505080035 62 258 0.9 5.2 0.00 0.00 0.00 74 1011.8
20260505074535 63 256 0.9 6.1 0.00 0.00 0.00 73 1011.6
20260505073032 63 265 0.9 5.2 0.00 0.00 0.00 73 1011.6
20260505070149 64 277 0.9 7.0 0.00 0.00 0.00 71 1011.2
20260505064605 64 261 0.0 7.8 0.00 0.00 0.00 71 1011.1
20260505063028 64 247 0.9 5.2 0.00 0.00 0.00 70 1011.0
20260505054536 65 241 0.0 5.2 0.00 0.00 0.00 66 1010.9
20260505053032 66 263 0.0 4.3 0.00 0.00 0.00 64 1010.8
20260505051534 66 248 0.9 9.6 0.00 0.00 0.00 63 1010.7
20260505041536 68 251 0.0 6.1 0.00 0.00 0.00 59 1010.1
20260505040048 67 265 0.9 6.1 0.00 0.00 0.00 59 1009.8
20260505031608 70 262 0.0 3.5 0.00 0.00 0.00 55 1009.1
20260505030033 70 258 0.9 6.1 0.00 0.00 0.00 55 1008.9
20260505024535 71 256 0.9 6.1 0.00 0.00 0.00 55 1008.7
20260505023036 71 247 0.9 8.7 0.00 0.00 0.00 55 1008.7
20260505020036 72 198 0.9 5.2 0.00 0.00 0.00 53 1008.7
20260505014607 73 234 0.9 6.1 0.00 0.00 0.00 52 1008.6
20260505013033 74 206 1.7 5.2 0.00 0.00 0.00 52 1008.5
20260505010032 75 209 1.7 9.6 0.00 0.00 0.00 50 1008.4
20260505004529 75 241 2.6 9.6 0.00 0.00 0.00 50 1008.4
20260505003032 76 238 1.7 10.4 0.00 0.00 0.00 49 1008.3
20260505001533 75 237 1.7 7.8 0.00 0.00 0.00 49 1008.2
20260505000041 76 242 2.6 9.6 0.00 0.00 0.00 49 1008.2
20260504234533 75 251 1.7 9.6 0.00 0.00 0.00 49 1008.2
20260504233107 76 269 1.7 7.0 0.00 0.00 0.00 49 1008.1
20260504231535 76 267 1.7 7.0 0.00 0.00 0.00 49 1008.1
20260504230042 76 276 1.7 7.8 0.00 0.00 0.00 49 1008.2
20260504224536 76 269 1.7 13.9 0.00 0.00 0.00 49 1008.3
20260504223036 76 283 1.7 10.4 0.00 0.00 0.00 49 1008.6
20260504221536 76 296 1.7 12.2 0.00 0.00 0.00 49 1008.6
20260504220057 0 0 0.0 0.0 0.00 0.00 0.00 100
20260504214607 76 291 1.7 10.4 0.00 0.00 0.00 49 1008.9
20260504213035 76 286 2.6 9.6 0.00 0.00 0.00 49 1009.1
20260504211536 76 310 2.6 8.7 0.00 0.00 0.00 48 1009.2
20260504204535 78 296 1.7 8.7 0.00 0.00 0.00 45 1009.6
20260504203033 79 314 1.7 9.6 0.00 0.00 0.00 43 1009.8
20260504200032 77 292 2.6 8.7 0.00 0.00 0.00 46 1010.0
20260504193033 77 305 1.7 7.8 0.00 0.00 0.00 47 1010.2
20260504190037 76 284 0.9 7.0 0.00 0.00 0.00 48 1010.5
20260504183031 74 297 1.7 6.1 0.00 0.00 0.00 50 1010.6
20260504181535 73 294 1.7 7.8 0.00 0.00 0.00 51 1010.7
20260504180036 72 295 1.7 7.8 0.00 0.00 0.00 52 1010.7
20260504174536 72 296 2.6 13.9 0.00 0.00 0.00 53 1010.7
20260504173034 71 301 2.6 7.0 0.00 0.00 0.00 54 1010.7
20260504171607 70 302 2.6 11.3 0.00 0.00 0.00 55 1010.7